Stations météo

Publicité
Cluanie Inn No 3, Grande-Bretagne (99117): Température de l'air & dewpoint: 13.10.2018 21:00:00 - 19.10.2018 21:00:00 (BST)Cluanie Inn No 3, Grande-Bretagne (99117): Quantités de précipitations: 13.10.2018 21:00:00 - 19.10.2018 21:00:00 (BST)
Date & Time tt [°C] td [°C] rr [mm]
19.10.2018 21:00:00 6,0 4,0 0,0
19.10.2018 20:00:00 8,5 4,5 0,0
19.10.2018 19:00:00 9,1 4,1 0,0
19.10.2018 18:00:00 8,9 4,4 0,0
19.10.2018 17:00:00 10,1 4,2 0,0
19.10.2018 16:00:00 10,0 5,4 0,0
19.10.2018 15:00:00 9,5 6,8 0,2
19.10.2018 14:00:00 11,0 5,6 0,0
19.10.2018 13:00:00 11,0 6,8 0,0
19.10.2018 12:00:00 10,2 7,0 1,0
19.10.2018 11:00:00 9,6 8,8 1,2
19.10.2018 10:00:00 8,4 7,8 1,8
19.10.2018 09:00:00 7,9 7,2 3,6
19.10.2018 08:00:00 8,0 6,5 1,2
19.10.2018 07:00:00 9,3 4,6 0,0
19.10.2018 06:00:00 9,9 3,5 0,0
19.10.2018 05:00:00 9,4 3,2 0,0
19.10.2018 04:00:00 9,1 2,7 0,0
19.10.2018 03:00:00 9,1 2,8 0,0
19.10.2018 02:00:00 9,0 3,3 0,0
19.10.2018 01:00:00 8,6 2,9 0,0
19.10.2018 00:00:00 8,8 2,9 0,0
18.10.2018 23:00:00 8,4 3,1 0,0
18.10.2018 22:00:00 8,6 2,9 0,0
18.10.2018 21:00:00 8,9 3,1 0,0
18.10.2018 20:00:00 8,9 3,5 0,0
18.10.2018 19:00:00 8,9 4,0 0,0
18.10.2018 18:00:00 8,9 4,5 0,0
18.10.2018 17:00:00 9,0 5,5 0,0
18.10.2018 16:00:00 9,6 4,5 0,0
18.10.2018 15:00:00 9,4 4,2 0,0
18.10.2018 14:00:00 9,7 4,6 0,0
18.10.2018 13:00:00 9,6 4,3 0,0
18.10.2018 12:00:00 9,2 4,2 0,0
18.10.2018 11:00:00 8,5 5,5 0,0
18.10.2018 10:00:00 7,7 5,1 0,0
18.10.2018 09:00:00 7,2 4,9 0,0
18.10.2018 08:00:00 8,2 4,0 0,0
18.10.2018 07:00:00 7,6 4,0 0,0
18.10.2018 06:00:00 8,1 3,3 0,0
18.10.2018 05:00:00 8,1 3,6 0,0
18.10.2018 04:00:00 7,9 3,9 0,0
18.10.2018 03:00:00 8,3 3,9 0,0
18.10.2018 02:00:00 7,4 4,5 0,0
18.10.2018 01:00:00 7,6 3,1 0,0
18.10.2018 00:00:00 6,9 2,4 0,0
17.10.2018 23:00:00 7,9 2,4 0,0
17.10.2018 22:00:00 7,7 3,0 0,0
17.10.2018 21:00:00 7,2 3,7 0,2
17.10.2018 20:00:00 7,8 3,5 0,0
17.10.2018 19:00:00 7,6 4,7 0,4
17.10.2018 18:00:00 7,9 4,2 0,2
17.10.2018 17:00:00 8,2 4,5 0,6
17.10.2018 16:00:00 8,9 5,5 0,4
17.10.2018 15:00:00 8,6 5,1 1,2
17.10.2018 14:00:00 10,0 4,4 0,2
17.10.2018 13:00:00 8,6 4,5 0,4
17.10.2018 12:00:00 9,3 5,4 0,2
17.10.2018 11:00:00 8,4 4,1 0,2
17.10.2018 10:00:00 8,5 4,1 0,2
17.10.2018 09:00:00 8,1 4,3 0,0
17.10.2018 08:00:00 8,3 3,6 0,2
17.10.2018 07:00:00 7,9 5,4 0,0
17.10.2018 06:00:00 8,5 5,0 0,4
17.10.2018 05:00:00 8,7 5,8 0,0
17.10.2018 04:00:00 8,9 5,5 0,2
17.10.2018 03:00:00 8,9 6,7 0,8
17.10.2018 02:00:00 9,2 6,2 0,2
17.10.2018 01:00:00 10,3 5,2 0,0
17.10.2018 00:00:00 10,5 5,9 0,0
16.10.2018 23:00:00 10,5 7,1 0,8
16.10.2018 22:00:00 11,3 8,3 2,2
16.10.2018 21:00:00 11,2 8,1 1,6
16.10.2018 20:00:00 12,0 7,4 0,8
16.10.2018 19:00:00 11,5 8,0 0,4
16.10.2018 18:00:00 11,4 8,0 0,2
16.10.2018 17:00:00 11,6 7,6 0,2
16.10.2018 16:00:00 12,2 6,4 0,0
16.10.2018 15:00:00 12,1 7,2 0,4
16.10.2018 14:00:00 11,5 8,8 0,4
16.10.2018 13:00:00 10,8 8,4 0,4
16.10.2018 12:00:00 10,3 7,5 0,2
16.10.2018 11:00:00 11,0 4,2 0,0
16.10.2018 10:00:00 10,9 3,7 0,4
16.10.2018 09:00:00 10,2 5,4 0,2
16.10.2018 08:00:00 10,7 3,9 0,0
16.10.2018 07:00:00 10,5 3,2 0,0
16.10.2018 06:00:00 8,8 2,8 0,0
16.10.2018 05:00:00 8,2 2,3 0,0
16.10.2018 04:00:00 8,1 1,9 0,0
16.10.2018 03:00:00 7,9 2,2 0,0
16.10.2018 02:00:00 9,0 2,2 0,0
16.10.2018 01:00:00 8,2 3,5 0,0
16.10.2018 00:00:00 8,1 4,3 0,0
15.10.2018 23:00:00 8,1 4,8 0,0
15.10.2018 22:00:00 8,3 4,8 0,0
15.10.2018 21:00:00 8,3 4,6 0,0
15.10.2018 20:00:00 8,3 4,3 0,0
15.10.2018 19:00:00 8,8 4,7 0,0
15.10.2018 18:00:00 10,3 5,0 0,0
15.10.2018 17:00:00 10,7 5,6 0,0
15.10.2018 16:00:00 11,2 5,1 0,0
15.10.2018 15:00:00 11,1 5,1 0,0
15.10.2018 14:00:00 11,7 5,0 0,0
15.10.2018 13:00:00 10,6 5,7 0,0
15.10.2018 12:00:00 10,7 4,4 0,0
15.10.2018 11:00:00 10,9 5,2 0,0
15.10.2018 10:00:00 9,6 5,1 0,0
15.10.2018 09:00:00 9,0 4,9 0,0
15.10.2018 08:00:00 7,0 3,2 0,0
15.10.2018 07:00:00 8,0 3,7 0,0
15.10.2018 06:00:00 7,0 3,9 0,0
15.10.2018 05:00:00 7,7 4,4 0,0
15.10.2018 04:00:00 7,5 4,7 0,0
15.10.2018 03:00:00 7,2 4,7 0,0
15.10.2018 02:00:00 7,5 4,5 0,0
15.10.2018 01:00:00 7,2 4,3 0,0
15.10.2018 00:00:00 6,8 4,4 0,0
14.10.2018 23:00:00 6,8 4,2 0,0
14.10.2018 22:00:00 5,6 3,5 0,0
14.10.2018 21:00:00 7,0 4,5 0,0
14.10.2018 20:00:00 7,4 4,4 0,2
14.10.2018 19:00:00 7,1 2,6 0,0
14.10.2018 18:00:00 8,3 2,2 0,0
14.10.2018 17:00:00 10,2 3,3 0,0
14.10.2018 16:00:00 9,6 2,7 0,0
14.10.2018 15:00:00 10,3 2,0 0,0
14.10.2018 14:00:00 11,4 2,9 0,0
14.10.2018 13:00:00 10,1 3,7 0,0
14.10.2018 12:00:00 7,9 5,7 0,0
14.10.2018 11:00:00 6,9 4,6 0,0
14.10.2018 10:00:00 5,2 4,6 0,0
14.10.2018 09:00:00 4,2 3,8 0,0
14.10.2018 08:00:00 4,0 3,1 0,0
14.10.2018 07:00:00 5,1 3,6 0,0
14.10.2018 06:00:00 5,9 3,9 0,0
14.10.2018 05:00:00 6,4 3,4 0,0
14.10.2018 04:00:00 6,2 4,2 0,2
14.10.2018 03:00:00 6,6 4,2 0,8
14.10.2018 02:00:00 7,1 5,4 0,4
14.10.2018 01:00:00 7,1 6,3 0,0
14.10.2018 00:00:00 7,1 6,4 0,2
13.10.2018 23:00:00 7,0 6,4 0,6
13.10.2018 22:00:00 7,4 6,4 0,6
13.10.2018 21:00:00 7,8 6,7 0,4

tt = Température de l'air
td = dewpoint
rr = Quantités de précipitations

stations d'obs. à proximité